Tracking 19245 objects as of 17-Aug-2018
HD Live streaming from Space Station
objects crossing your sky now

NAVSTAR 27 (USA 84)

Track NAVSTAR 27 (USA 84) now!
NAVSTAR 27 (USA 84) is classified as:


NORAD ID: 22108
Int'l Code: 1992-058A
Perigee: 21,371.5 km
Apogee: 21,434.3 km
Inclination: 55.2 °
Period: 767.7 minutes
Semi major axis: 27773 km
RCS: 3.0849 m2 (large)
Launch date: September 9, 1992
Source: United States (US)
Launch site: AIR FORCE EASTERN TEST RANGE (AFETR)
aabbcc
Your satellite tracking list
Your tracking list is empty




NASA's NSSDC Master Catalog

Two Line Element Set (TLE):
1 22108U 92058A   18229.38653278  .00000008  00000-0  00000+0 0  9998
2 22108  55.2150 264.7727 0011295 341.3342  18.6817  1.87563215189351
Source of the keplerian elements: AFSPC